EW3060 Weather Reports


Display with metric or nautical units.
time (UTC)temp
F
wind
direction
speed
MPH
gust
MPH
rain 1hr
in
rain 24hr
in
rain mn
in
humidity
%
barometer
mb
20260906214517 67 135 0.0 0.0 0.02 0.49 0.49 84 1007.2
20260906213017 66 143 0.0 0.0 0.02 0.49 0.49 84 1007.2
20260906211514 66 126 0.0 2.0 0.04 0.49 0.49 85 1007.2
20260906210014 67 122 0.0 2.0 0.06 0.49 0.49 88 1007.9
20260906204513 67 114 0.0 0.0 0.07 0.47 0.47 87 1008.1
20260906203014 68 148 0.0 0.0 0.09 0.47 0.47 90 1008.2
20260906201512 67 148 0.0 0.0 0.10 0.45 0.45 90 1008.1
20260906200012 68 197 0.0 0.0 0.09 0.43 0.43 90 1008.2
20260906194512 68 197 0.0 0.0 0.07 0.40 0.40 90 1008.5
20260906193011 68 199 0.0 0.0 0.07 0.38 0.38 90 1008.6
20260906191511 68 143 0.0 0.0 0.06 0.35 0.35 90 1008.6
20260906190011 68 133 0.0 0.0 0.07 0.34 0.34 89 1008.4
20260906184509 68 225 0.0 0.0 0.09 0.33 0.33 88 1008.3
20260906183009 68 225 0.0 0.0 0.09 0.31 0.31 88 1008.5
20260906181509 68 359 0.0 0.0 0.08 0.28 0.28 88 1008.7
20260906180005 68 225 0.0 0.0 0.07 0.27 0.27 89 1008.4
20260906174503 67 225 0.0 0.0 0.06 0.24 0.24 89 1008.2
20260906173001 67 225 0.0 0.0 0.04 0.22 0.22 89 1007.8
20260906171602 67 225 0.0 0.0 0.03 0.21 0.21 89 1007.5
20260906170106 66 207 0.0 1.0 0.03 0.20 0.20 90 1007.3
20260906164608 66 181 0.0 0.0 0.02 0.18 0.18 89 1007.2
20260906163100 65 177 0.0 0.0 0.04 0.18 0.18 89 1006.8
20260906161603 64 177 0.0 0.0 0.05 0.18 0.18 89 1006.7
20260906160058 64 228 0.0 0.0 0.08 0.17 0.17 88 1006.8
20260906154603 64 229 0.0 0.0 0.09 0.15 0.15 87 1007.4
20260906153057 63 229 0.0 0.0 0.11 0.14 0.14 87 1007.5
20260906151553 63 229 0.0 0.0 0.10 0.13 0.13 85 1007.6
20260906144547 64 201 0.0 0.0 0.06 0.06 0.06 78 1007.5
20260906143047 65 220 0.0 1.0 0.03 0.03 0.03 73 1007.2
20260906141541 67 212 0.0 1.0 0.02 0.02 0.02 68 1006.9
20260906140038 68 219 0.0 2.0 0.02 0.02 0.02 62 1006.5
20260906134531 71 359 0.0 2.0 0.00 0.00 0.00 55 1006.1
20260906133030 73 213 0.0 2.0 0.00 0.00 0.00 49 1005.5
20260906131529 73 359 0.0 1.0 0.00 0.00 0.00 49 1005.4
20260906130043 73 359 0.0 0.0 0.00 0.00 0.00 50 1005.2
20260906124528 74 193 0.0 1.0 0.00 0.00 0.00 50 1004.9
20260906123037 74 359 0.0 2.0 0.00 0.00 0.00 50 1004.9
20260906121525 74 359 0.0 3.0 0.00 0.00 0.00 51 1005.2
20260906120024 73 212 0.0 1.0 0.00 0.00 0.00 50 1005.2
20260906114523 73 222 0.0 2.0 0.00 0.00 0.00 51 1005.3
20260906113024 73 229 0.0 1.0 0.00 0.00 0.00 52 1005.2
20260906111523 73 229 0.0 2.0 0.00 0.00 0.00 52 1005.1
20260906110021 73 196 0.0 2.0 0.00 0.00 0.00 52 1005.1
20260906104537 73 203 1.0 2.0 0.00 0.00 0.00 52 1005.2
20260906103039 73 202 1.0 2.0 0.00 0.00 0.00 52 1005.2
20260906101519 73 207 1.0 4.0 0.00 0.00 0.00 53 1005.3
20260906100025 73 201 0.0 2.0 0.00 0.00 0.00 53 1005.4
20260906094517 72 197 1.0 2.0 0.00 0.00 0.00 53 1005.5
20260906093023 72 206 1.0 3.0 0.00 0.00 0.00 52 1005.5
20260906091521 73 196 1.0 2.0 0.00 0.00 0.00 50 1005.4
20260906090016 73 224 1.0 3.0 0.00 0.00 0.00 49 1005.3
20260906084511 73 227 1.0 4.0 0.00 0.00 0.00 48 1005.4
20260906083010 73 233 1.0 2.0 0.00 0.00 0.00 49 1005.4
20260906081508 73 216 1.0 2.0 0.00 0.00 0.00 49 1005.6
20260906080008 73 191 1.0 5.0 0.00 0.00 0.00 48 1005.5
20260906074508 73 201 1.0 2.0 0.00 0.00 0.00 49 1005.4
20260906073006 73 239 1.0 3.0 0.00 0.00 0.00 49 1005.6
20260906071505 73 198 0.0 2.0 0.00 0.00 0.00 48 1005.7
20260906070009 73 230 0.0 2.0 0.00 0.00 0.00 47 1005.6
20260906064503 73 210 0.0 2.0 0.00 0.00 0.00 47 1005.6
20260906063003 74 235 0.0 2.0 0.00 0.00 0.00 46 1005.8
20260906061504 74 193 0.0 2.0 0.00 0.00 0.00 45 1006.0
20260906060002 74 214 0.0 2.0 0.00 0.00 0.00 43 1006.1
20260906054501 73 211 0.0 1.0 0.00 0.00 0.00 42 1006.2
20260906053003 74 214 0.0 1.0 0.00 0.00 0.00 41 1006.3
20260906051600 74 222 0.0 1.0 0.00 0.00 0.00 40 1006.6
20260906050106 74 203 0.0 0.0 0.00 0.00 0.00 39 1006.7
20260906044602 74 206 0.0 1.0 0.00 0.00 0.00 37 1006.6
20260906043059 74 208 0.0 1.0 0.00 0.00 0.00 38 1006.6
20260906041558 75 180 0.0 1.0 0.00 0.00 0.00 40 1006.4
20260906040104 75 193 0.0 2.0 0.00 0.00 0.00 40 1006.3
20260906034600 75 210 1.0 2.0 0.00 0.00 0.00 40 1006.0
20260906033112 75 359 1.0 2.0 0.00 0.00 0.00 39 1005.5
20260906031613 76 207 1.0 4.0 0.00 0.00 0.00 38 1005.5
20260906030058 76 187 1.0 6.0 0.00 0.00 0.00 37 1005.0
20260906024605 76 359 1.0 3.0 0.00 0.00 0.00 37 1005.1
20260906023101 77 359 1.0 3.0 0.00 0.00 0.00 36 1004.9
20260906021558 78 189 1.0 3.0 0.00 0.00 0.00 36 1004.9
20260906020054 78 209 1.0 3.0 0.00 0.00 0.00 37 1005.0
20260906014555 79 222 1.0 3.0 0.00 0.00 0.00 36 1005.3
20260906013054 80 195 1.0 2.0 0.00 0.00 0.00 35 1005.4
20260906011551 80 210 1.0 2.0 0.00 0.00 0.00 34 1005.5
20260906010053 80 216 1.0 2.0 0.00 0.00 0.00 34 1005.6
20260906004550 81 205 0.0 2.0 0.00 0.00 0.00 34 1005.6
20260906003049 81 194 1.0 2.0 0.00 0.00 0.00 33 1005.7
20260906001548 82 179 1.0 2.0 0.00 0.00 0.00 31 1005.7
20260906000057 82 177 1.0 3.0 0.00 0.00 0.00 31 1005.7
20260905234551 82 213 1.0 3.0 0.00 0.00 0.00 30 1005.8
20260905233049 82 172 1.0 3.0 0.00 0.00 0.00 30 1005.7
20260905231544 82 159 0.0 5.0 0.00 0.00 0.00 32 1005.8
20260905230044 82 235 1.0 3.0 0.00 0.00 0.00 31 1006.0
20260905224541 82 182 1.0 6.0 0.00 0.00 0.00 31 1005.9
20260905223040 83 234 1.0 3.0 0.00 0.00 0.00 28 1006.1
20260905221538 82 213 1.0 5.0 0.00 0.00 0.00 26 1006.1
20260905220039 83 210 1.0 6.0 0.00 0.00 0.00 25 1006.1